BREEZE-M R/B

Satellite information

Favourite Embed

Satellite Type and Status

ROCKET BODYIN ORBIT

Key statistics

Satellite BREEZE-M R/B at a glance.

Uptime

6943

Days in orbit

Revolutions

≈ 1.9

Per day

Orbit

OTHER

Other

Inclination

16.4

Latest

Satellite identification and parameters

Extended collection of information and parameters for BREEZE-M R/B.

Object identification

Identified? True

Debris? False

Object name: BREEZE-M R/B

International designator: 2006-056C

Object number (NORAD): 29650

Object ID (CCSDS): 29650

Country: COMMONWEALTH OF INDEPENDENT STATES (CIS)

Current information (Y/N): Y

RCS size: LARGE

Orbital parameters

Period: 773.513 minutes

Inclination: 16.4393 deg

SMA: 27912.917 km

Apoapsis: 35419.342 km

Periapsis: 7650.221 km

RAAN: 100.2855 deg

Eccentricy: 0.4974242

Argument of periapsis: 223.343 deg

Mean anomaly: 111.4743 deg

Mean motion: 1.86163672 rev/day

Mean motion (dot): -0.0000006 rev/day2

B* drag term: 0.0 1/REarth

Two-line elements (TLE)

Creation date: Dec. 14, 2025, 3:07 a.m.

Reference frame: TEME

Reference center: EARTH

Epoch: Dec. 13, 2025, 1:17 p.m. UTC

TLE line 0: 0 BREEZE-M R/B

TLE line 1: 1 29650U 06056C 25347.55363155 -.00000060 00000-0 00000-0 0 9990

TLE line 2: 2 29650 16.4393 100.2855 4974242 223.3430 111.4743 1.86163672129126

Live tracking on map

Real-time ground track for satellite BREEZE-M R/B.

In-orbit conjunctions

A list of the most updated potential collisions computed for object BREEZE-M R/B.

Target Orbit TCA Probability of collision Miss distance Type
BREEZE-M DEB MEO 2025-12-10 04:56:10 TBA 3483.0 (m) DEBRIS

Associated space launch

Malaysian geostationary communications satellite

BREEZE-M R/B was lifted into orbit during the mission ‘Proton-M Briz-M | Measat 3’, on board a Proton-M Briz-M space rocket.

The launch took place on Dec. 11, 2006, 11:28 p.m. from 200/39 (200L).

For more information about the launch, click the button.

Launch to space Proton-M Briz-M | Measat 3
Proton-M Briz-M | Measat 3

Agency: N/A

Status: Launch Successful

Launch date: Dec. 11, 2006, 11:28 p.m. UTC

Rocket: Proton-M Briz-M

Launch pad: 200/39 (200L)

Location: Baikonur Cosmodrome, Republic of Kazakhstan

...

Latest news about this satellite

News about space launch
Insurance claim for failed Measat-3 satellite in dispute

An insurance claim for a Malaysian satellite that ran out of fuel prematurely remains unsettled more than a year after the incident.


Newsletter sign-up

Weekly statistics, charts and insights to help you stay on top of the space industry.